| time (UTC) | temp C | wind direction | speed KPH | gust KPH | rain 1hr cm | rain 24hr cm | rain mn cm | humidity % | barometer mb |
| 20260506051355 | 4 | 360 | 6.4 | 8.0 | 0.00 | 0.00 | 0.00 | 82 | 1015.1 |
| 20260506050857 | 4 | 345 | 0.0 | 6.4 | 0.00 | 0.00 | 0.00 | 82 | 1015.2 |
| 20260506050354 | 4 | 344 | 3.2 | 6.4 | 0.00 | 0.00 | 0.00 | 82 | 1015.1 |
| 20260506044848 | 4 | 347 | 1.6 | 8.0 | 0.00 | 0.00 | 0.00 | 82 | 1015.2 |
| 20260506044344 | 4 | 355 | 4.8 | 9.7 | 0.00 | 0.00 | 0.00 | 82 | 1015.2 |
| 20260506043848 | 4 | 5 | 8.0 | 9.7 | 0.00 | 0.00 | 0.00 | 82 | 1015.1 |
| 20260506043401 | 4 | 5 | 4.8 | 6.4 | 0.00 | 0.00 | 0.00 | 82 | 1015.2 |
| 20260506042840 | 4 | 344 | 3.2 | 8.0 | 0.00 | 0.00 | 0.00 | 83 | 1015.2 |
| 20260506042343 | 4 | 337 | 6.4 | 9.7 | 0.00 | 0.00 | 0.00 | 83 | 1015.3 |
| 20260506041844 | 4 | 350 | 6.4 | 9.7 | 0.00 | 0.00 | 0.00 | 83 | 1015.3 |
| 20260506041339 | 4 | 5 | 4.8 | 8.0 | 0.00 | 0.00 | 0.00 | 83 | 1015.2 |
| 20260506040855 | 4 | 348 | 3.2 | 4.8 | 0.00 | 0.00 | 0.00 | 83 | 1015.4 |
| 20260506040349 | 4 | 344 | 0.0 | 3.2 | 0.00 | 0.00 | 0.00 | 83 | 1015.3 |
| 20260506035847 | 4 | 344 | 0.0 | 3.2 | 0.00 | 0.00 | 0.00 | 83 | 1015.4 |
| 20260506035351 | 4 | 344 | 0.0 | 8.0 | 0.00 | 0.00 | 0.00 | 83 | 1015.4 |
| 20260506034851 | 4 | 344 | 3.2 | 8.0 | 0.00 | 0.00 | 0.00 | 83 | 1015.4 |
| 20260506034341 | 4 | 344 | 4.8 | 6.4 | 0.00 | 0.00 | 0.00 | 83 | 1015.4 |
| 20260506033840 | 4 | 344 | 1.6 | 4.8 | 0.00 | 0.00 | 0.00 | 83 | 1015.5 |
| 20260506033341 | 4 | 344 | 1.6 | 4.8 | 0.00 | 0.00 | 0.00 | 83 | 1015.5 |
| 20260506032858 | 4 | 344 | 1.6 | 8.0 | 0.00 | 0.00 | 0.00 | 83 | 1015.6 |
| 20260506032354 | 4 | 346 | 4.8 | 8.0 | 0.00 | 0.00 | 0.00 | 83 | 1015.6 |
| 20260506031858 | 4 | 355 | 4.8 | 6.4 | 0.00 | 0.00 | 0.00 | 83 | 1015.5 |
| 20260506031349 | 4 | 355 | 3.2 | 6.4 | 0.00 | 0.00 | 0.00 | 83 | 1015.6 |
| 20260506030846 | 4 | 355 | 3.2 | 8.0 | 0.00 | 0.00 | 0.00 | 83 | 1015.6 |
| 20260506030340 | 4 | 355 | 4.8 | 8.0 | 0.00 | 0.00 | 0.00 | 83 | 1015.6 |
| 20260506025857 | 4 | 360 | 6.4 | 9.7 | 0.00 | 0.00 | 0.00 | 83 | 1015.6 |
| 20260506025400 | 4 | 5 | 6.4 | 9.7 | 0.00 | 0.00 | 0.00 | 83 | 1015.6 |
| 20260506024846 | 4 | 5 | 6.4 | 8.0 | 0.00 | 0.00 | 0.00 | 83 | 1015.6 |
| 20260506024342 | 4 | 5 | 6.4 | 8.0 | 0.00 | 0.00 | 0.00 | 83 | 1015.6 |
| 20260506023838 | 4 | 5 | 6.4 | 8.0 | 0.00 | 0.00 | 0.00 | 83 | 1015.6 |
| 20260506023343 | 4 | 355 | 6.4 | 8.0 | 0.00 | 0.00 | 0.00 | 83 | 1015.7 |
| 20260506022838 | 5 | 355 | 6.4 | 9.7 | 0.00 | 0.00 | 0.00 | 83 | 1015.7 |
| 20260506022340 | 5 | 355 | 6.4 | 9.7 | 0.00 | 0.00 | 0.00 | 83 | 1015.7 |
| 20260506021848 | 5 | 5 | 6.4 | 9.7 | 0.00 | 0.00 | 0.00 | 83 | 1015.6 |
| 20260506021340 | 5 | 350 | 8.0 | 9.7 | 0.00 | 0.00 | 0.00 | 82 | 1015.6 |
| 20260506020842 | 5 | 355 | 8.0 | 9.7 | 0.00 | 0.00 | 0.00 | 82 | 1015.7 |
| 20260506020340 | 5 | 19 | 6.4 | 12.9 | 0.00 | 0.00 | 0.00 | 82 | 1015.7 |
| 20260506015924 | 5 | 23 | 6.4 | 12.9 | 0.00 | 0.00 | 0.00 | 82 | 1015.7 |
| 20260506015342 | 5 | 360 | 8.0 | 9.7 | 0.00 | 0.00 | 0.00 | 82 | 1015.7 |
| 20260506014840 | 5 | 360 | 8.0 | 9.7 | 0.00 | 0.00 | 0.00 | 82 | 1015.8 |
| 20260506014348 | 5 | 360 | 6.4 | 9.7 | 0.00 | 0.00 | 0.00 | 82 | 1015.8 |
| 20260506013905 | 5 | 5 | 8.0 | 9.7 | 0.00 | 0.00 | 0.00 | 82 | 1015.9 |
| 20260506013348 | 5 | 355 | 6.4 | 12.9 | 0.00 | 0.00 | 0.00 | 82 | 1015.9 |
| 20260506012844 | 5 | 360 | 8.0 | 12.9 | 0.00 | 0.00 | 0.00 | 82 | 1016.0 |
| 20260506012341 | 5 | 355 | 8.0 | 12.9 | 0.00 | 0.00 | 0.00 | 82 | 1016.0 |
| 20260506011903 | 5 | 355 | 6.4 | 14.5 | 0.00 | 0.00 | 0.00 | 82 | 1016.0 |
| 20260506011340 | 5 | 355 | 9.7 | 14.5 | 0.00 | 0.00 | 0.00 | 82 | 1016.0 |
| 20260506010858 | 5 | 355 | 9.7 | 16.1 | 0.00 | 0.00 | 0.00 | 82 | 1016.1 |
| 20260506010352 | 5 | 355 | 11.3 | 16.1 | 0.00 | 0.00 | 0.00 | 82 | 1016.1 |
| 20260506005848 | 5 | 5 | 11.3 | 16.1 | 0.00 | 0.00 | 0.00 | 82 | 1016.1 |
| 20260506005350 | 5 | 351 | 11.3 | 16.1 | 0.00 | 0.00 | 0.00 | 82 | 1016.1 |
| 20260506004847 | 5 | 5 | 11.3 | 16.1 | 0.00 | 0.00 | 0.00 | 82 | 1016.0 |
| 20260506004403 | 5 | 360 | 9.7 | 16.1 | 0.00 | 0.00 | 0.00 | 82 | 1016.1 |
| 20260506003901 | 5 | 360 | 14.5 | 19.3 | 0.00 | 0.00 | 0.00 | 81 | 1016.1 |
| 20260506003355 | 5 | 360 | 12.9 | 19.3 | 0.00 | 0.00 | 0.00 | 81 | 1016.1 |
| 20260506002905 | 6 | 5 | 12.9 | 17.7 | 0.00 | 0.00 | 0.00 | 81 | 1016.0 |
| 20260506002350 | 6 | 360 | 12.9 | 19.3 | 0.00 | 0.00 | 0.00 | 81 | 1016.0 |
| 20260506001922 | 6 | 343 | 14.5 | 20.9 | 0.00 | 0.00 | 0.00 | 81 | 1016.0 |
| 20260506001412 | 6 | 16 | 12.9 | 20.9 | 0.00 | 0.00 | 0.00 | 81 | 1016.0 |
| 20260506000851 | 6 | 355 | 12.9 | 19.3 | 0.00 | 0.00 | 0.00 | 81 | 1015.9 |
| 20260506000346 | 6 | 11 | 14.5 | 19.3 | 0.00 | 0.00 | 0.00 | 81 | 1015.9 |
| 20260505235844 | 6 | 360 | 14.5 | 17.7 | 0.00 | 0.00 | 0.00 | 81 | 1015.9 |
| 20260505235344 | 6 | 355 | 14.5 | 17.7 | 0.00 | 0.00 | 0.00 | 81 | 1015.9 |
| 20260505234840 | 6 | 12 | 14.5 | 19.3 | 0.00 | 0.00 | 0.00 | 82 | 1015.9 |
| 20260505234354 | 6 | 355 | 12.9 | 19.3 | 0.00 | 0.00 | 0.00 | 82 | 1015.9 |
| 20260505233855 | 6 | 355 | 14.5 | 17.7 | 0.00 | 0.00 | 0.00 | 82 | 1016.0 |
| 20260505233350 | 6 | 360 | 14.5 | 17.7 | 0.00 | 0.00 | 0.00 | 83 | 1016.0 |
| 20260505232845 | 6 | 5 | 9.7 | 14.5 | 0.00 | 0.00 | 0.00 | 83 | 1016.0 |
| 20260505232348 | 6 | 344 | 8.0 | 14.5 | 0.00 | 0.00 | 0.00 | 83 | 1016.1 |
| 20260505231844 | 6 | 355 | 9.7 | 14.5 | 0.00 | 0.00 | 0.00 | 83 | 1016.1 |
| 20260505231358 | 6 | 355 | 9.7 | 14.5 | 0.00 | 0.00 | 0.00 | 83 | 1016.1 |
| 20260505230854 | 6 | 360 | 11.3 | 19.3 | 0.00 | 0.00 | 0.00 | 83 | 1016.1 |
| 20260505230415 | 6 | 360 | 16.1 | 22.5 | 0.00 | 0.00 | 0.00 | 83 | 1016.0 |
| 20260505225842 | 6 | 18 | 16.1 | 22.5 | 0.00 | 0.00 | 0.00 | 84 | 1016.1 |
| 20260505225406 | 6 | 5 | 9.7 | 22.5 | 0.00 | 0.00 | 0.00 | 84 | 1016.0 |
| 20260505224848 | 6 | 15 | 14.5 | 22.5 | 0.00 | 0.00 | 0.00 | 84 | 1016.0 |
| 20260505224341 | 6 | 5 | 9.7 | 12.9 | 0.00 | 0.00 | 0.00 | 85 | 1016.0 |
| 20260505223842 | 6 | 355 | 6.4 | 8.0 | 0.00 | 0.00 | 0.00 | 84 | 1016.0 |
| 20260505223341 | 6 | 351 | 4.8 | 6.4 | 0.00 | 0.00 | 0.00 | 84 | 1016.1 |
| 20260505222856 | 6 | 15 | 4.8 | 6.4 | 0.00 | 0.00 | 0.00 | 84 | 1016.0 |
| 20260505222418 | 6 | 15 | 4.8 | 9.7 | 0.00 | 0.00 | 0.00 | 84 | 1016.0 |
| 20260505221853 | 6 | 21 | 4.8 | 9.7 | 0.00 | 0.00 | 0.00 | 83 | 1016.0 |
| 20260505221349 | 6 | 5 | 4.8 | 6.4 | 0.00 | 0.00 | 0.00 | 83 | 1015.9 |
| 20260505220914 | 6 | 311 | 1.6 | 3.2 | 0.00 | 0.00 | 0.00 | 83 | 1016.0 |
| 20260505220345 | 6 | 311 | 1.6 | 3.2 | 0.00 | 0.00 | 0.00 | 83 | 1015.9 |
| 20260505215910 | 6 | 311 | 0.0 | 3.2 | 0.00 | 0.00 | 0.00 | 82 | 1015.9 |
| 20260505215347 | 6 | 270 | 0.0 | 3.2 | 0.00 | 0.00 | 0.00 | 82 | 1015.8 |
| 20260505214924 | 6 | 270 | 0.0 | 3.2 | 0.00 | 0.00 | 0.00 | 81 | 1015.9 |
| 20260505214343 | 6 | 270 | 0.0 | 1.6 | 0.00 | 0.00 | 0.00 | 81 | 1015.8 |
| 20260505213851 | 7 | 284 | 0.0 | 1.6 | 0.00 | 0.00 | 0.00 | 80 | 1015.8 |
| 20260505213341 | 7 | 284 | 0.0 | 3.2 | 0.00 | 0.00 | 0.00 | 79 | 1015.7 |
| 20260505212901 | 7 | 284 | 1.6 | 3.2 | 0.00 | 0.00 | 0.00 | 79 | 1015.7 |
| 20260505212339 | 7 | 284 | 0.0 | 1.6 | 0.00 | 0.00 | 0.00 | 79 | 1015.8 |
| 20260505211841 | 7 | 284 | 0.0 | 1.6 | 0.00 | 0.00 | 0.00 | 79 | 1015.8 |
| 20260505211349 | 7 | 284 | 0.0 | 1.6 | 0.00 | 0.00 | 0.00 | 79 | 1015.8 |
| 20260505210851 | 7 | 284 | 0.0 | 1.6 | 0.00 | 0.00 | 0.00 | 78 | 1015.8 |
| 20260505210351 | 7 | 284 | 0.0 | 3.2 | 0.00 | 0.00 | 0.00 | 78 | 1015.9 |
| 20260505205844 | 7 | 273 | 0.0 | 3.2 | 0.00 | 0.00 | 0.00 | 77 | 1015.8 |
| 20260505205349 | 8 | 254 | 0.0 | 1.6 | 0.00 | 0.00 | 0.00 | 77 | 1015.9 |
| 20260505204917 | 8 | 254 | 0.0 | 1.6 | 0.00 | 0.00 | 0.00 | 77 | 1015.8 |
| 20260505204349 | 8 | 254 | 0.0 | 4.8 | 0.00 | 0.00 | 0.00 | 77 | 1015.8 |
| 20260505203850 | 8 | 262 | 1.6 | 4.8 | 0.00 | 0.00 | 0.00 | 76 | 1015.8 |
| 20260505203353 | 8 | 266 | 3.2 | 4.8 | 0.00 | 0.00 | 0.00 | 76 | 1015.8 |
| 20260505202849 | 8 | 345 | 3.2 | 4.8 | 0.00 | 0.00 | 0.00 | 76 | 1015.8 |
| 20260505202350 | 8 | 345 | 1.6 | 3.2 | 0.00 | 0.00 | 0.00 | 76 | 1015.8 |
| 20260505201840 | 8 | 345 | 0.0 | 3.2 | 0.00 | 0.00 | 0.00 | 76 | 1015.8 |
| 20260505201341 | 8 | 345 | 0.0 | 3.2 | 0.00 | 0.00 | 0.00 | 75 | 1015.8 |
| 20260505200857 | 9 | 345 | 0.0 | 1.6 | 0.00 | 0.00 | 0.00 | 75 | 1015.7 |
| 20260505200352 | 9 | 345 | 0.0 | 1.6 | 0.00 | 0.00 | 0.00 | 74 | 1015.7 |
| 20260505195911 | 9 | 345 | 0.0 | 3.2 | 0.00 | 0.00 | 0.00 | 74 | 1015.7 |
| 20260505195347 | 10 | 345 | 0.0 | 3.2 | 0.00 | 0.00 | 0.00 | 74 | 1015.7 |
| 20260505194838 | 10 | 345 | 0.0 | 3.2 | 0.00 | 0.00 | 0.00 | 74 | 1015.7 |
| 20260505194424 | 10 | 345 | 0.0 | 3.2 | 0.00 | 0.00 | 0.00 | 75 | 1015.6 |
| 20260505193859 | 10 | 345 | 0.0 | 3.2 | 0.00 | 0.00 | 0.00 | 75 | 1015.6 |
| 20260505193354 | 10 | 345 | 0.0 | 3.2 | 0.00 | 0.00 | 0.00 | 75 | 1015.7 |
| 20260505192851 | 10 | 345 | 0.0 | 1.6 | 0.00 | 0.00 | 0.00 | 75 | 1015.7 |
| 20260505192404 | 10 | 345 | 0.0 | 1.6 | 0.00 | 0.00 | 0.00 | 76 | 1015.6 |
| 20260505191901 | 10 | 345 | 0.0 | 3.2 | 0.00 | 0.00 | 0.00 | 76 | 1015.6 |
| 20260505191358 | 10 | 345 | 0.0 | 8.0 | 0.00 | 0.00 | 0.00 | 75 | 1015.5 |
| 20260505190900 | 10 | 355 | 4.8 | 8.0 | 0.00 | 0.00 | 0.00 | 75 | 1015.5 |
| 20260505190400 | 10 | 355 | 3.2 | 6.4 | 0.00 | 0.00 | 0.00 | 75 | 1015.5 |
| 20260505185859 | 11 | 355 | 4.8 | 9.7 | 0.00 | 0.00 | 0.00 | 74 | 1015.4 |
| 20260505185357 | 11 | 355 | 6.4 | 12.9 | 0.00 | 0.00 | 0.00 | 74 | 1015.5 |
| 20260505184847 | 11 | 345 | 8.0 | 12.9 | 0.00 | 0.00 | 0.00 | 73 | 1015.5 |
| 20260505184429 | 11 | 347 | 8.0 | 14.5 | 0.00 | 0.00 | 0.00 | 74 | 1015.5 |
| 20260505183857 | 11 | 350 | 9.7 | 14.5 | 0.00 | 0.00 | 0.00 | 73 | 1015.4 |
| 20260505183351 | 11 | 355 | 8.0 | 12.9 | 0.00 | 0.00 | 0.00 | 73 | 1015.5 |
| 20260505182846 | 11 | 346 | 8.0 | 12.9 | 0.00 | 0.00 | 0.00 | 73 | 1015.4 |
| 20260505182348 | 11 | 355 | 8.0 | 12.9 | 0.00 | 0.00 | 0.00 | 74 | 1015.5 |
| 20260505181900 | 11 | 9 | 8.0 | 12.9 | 0.00 | 0.00 | 0.00 | 74 | 1015.5 |
| 20260505181400 | 11 | 355 | 4.8 | 12.9 | 0.00 | 0.00 | 0.00 | 75 | 1015.5 |
| 20260505180850 | 11 | 347 | 6.4 | 12.9 | 0.00 | 0.00 | 0.00 | 73 | 1015.5 |
| 20260505180352 | 11 | 350 | 6.4 | 12.9 | 0.00 | 0.00 | 0.00 | 73 | 1015.5 |
| 20260505175843 | 11 | 360 | 6.4 | 16.1 | 0.00 | 0.00 | 0.00 | 73 | 1015.5 |
| 20260505175400 | 11 | 355 | 6.4 | 16.1 | 0.00 | 0.00 | 0.00 | 73 | 1015.6 |
| 20260505174841 | 11 | 355 | 8.0 | 14.5 | 0.00 | 0.00 | 0.00 | 72 | 1015.6 |
| 20260505174404 | 11 | 360 | 9.7 | 14.5 | 0.00 | 0.00 | 0.00 | 73 | 1015.5 |
| 20260505173914 | 11 | 355 | 9.7 | 14.5 | 0.00 | 0.00 | 0.00 | 73 | 1015.5 |
| 20260505173349 | 11 | 5 | 11.3 | 14.5 | 0.00 | 0.00 | 0.00 | 72 | 1015.5 |
| 20260505172848 | 11 | 355 | 6.4 | 12.9 | 0.00 | 0.00 | 0.00 | 74 | 1015.6 |
| 20260505172347 | 11 | 347 | 8.0 | 12.9 | 0.00 | 0.00 | 0.00 | 74 | 1015.6 |
| 20260505171850 | 11 | 360 | 8.0 | 12.9 | 0.00 | 0.00 | 0.00 | 73 | 1015.7 |
| 20260505171347 | 11 | 360 | 6.4 | 12.9 | 0.00 | 0.00 | 0.00 | 74 | 1015.6 |
| 20260505170902 | 12 | 17 | 8.0 | 14.5 | 0.00 | 0.00 | 0.00 | 73 | 1015.8 |
| 20260505170342 | 12 | 355 | 6.4 | 16.1 | 0.00 | 0.00 | 0.00 | 71 | 1015.7 |
| 20260505165843 | 12 | 346 | 11.3 | 16.1 | 0.00 | 0.00 | 0.00 | 72 | 1015.7 |
| 20260505165351 | 12 | 22 | 9.7 | 14.5 | 0.00 | 0.00 | 0.00 | 72 | 1015.8 |
| 20260505164851 | 12 | 12 | 8.0 | 17.7 | 0.00 | 0.00 | 0.00 | 74 | 1015.8 |
| 20260505164356 | 12 | 10 | 12.9 | 17.7 | 0.00 | 0.00 | 0.00 | 73 | 1015.8 |
| 20260505163848 | 12 | 24 | 8.0 | 14.5 | 0.00 | 0.00 | 0.00 | 73 | 1015.8 |
| 20260505163342 | 12 | 5 | 8.0 | 16.1 | 0.00 | 0.00 | 0.00 | 74 | 1015.8 |
| 20260505162857 | 12 | 338 | 8.0 | 16.1 | 0.00 | 0.00 | 0.00 | 74 | 1015.8 |
| 20260505162349 | 12 | 30 | 9.7 | 14.5 | 0.00 | 0.00 | 0.00 | 72 | 1015.9 |
| 20260505161849 | 12 | 24 | 11.3 | 17.7 | 0.00 | 0.00 | 0.00 | 73 | 1015.9 |
| 20260505161347 | 12 | 17 | 9.7 | 17.7 | 0.00 | 0.00 | 0.00 | 73 | 1015.8 |
| 20260505160845 | 12 | 360 | 9.7 | 14.5 | 0.00 | 0.00 | 0.00 | 73 | 1015.9 |
| 20260505160341 | 12 | 355 | 11.3 | 16.1 | 0.00 | 0.00 | 0.00 | 73 | 1015.9 |
| 20260505152912 | 11 | 5 | 14.5 | 20.9 | 0.00 | 0.00 | 0.00 | 73 | 1015.9 |
| 20260505152346 | 11 | 348 | 17.7 | 22.5 | 0.00 | 0.00 | 0.00 | 73 | 1015.9 |
| 20260505151848 | 11 | 360 | 16.1 | 22.5 | 0.00 | 0.00 | 0.00 | 73 | 1015.9 |
| 20260505151347 | 11 | 16 | 19.3 | 22.5 | 0.00 | 0.00 | 0.00 | 73 | 1015.9 |
| 20260505150907 | 11 | 355 | 16.1 | 24.1 | 0.00 | 0.00 | 0.00 | 75 | 1015.9 |
| 20260505150405 | 11 | 22 | 16.1 | 30.6 | 0.00 | 0.00 | 0.00 | 74 | 1015.9 |
| 20260505140341 | 13 | 20 | 8.0 | 16.1 | 0.00 | 0.00 | 0.00 | 71 | 1016.0 |
| 20260505124845 | 11 | 32 | 14.5 | 19.3 | 0.00 | 0.00 | 0.00 | 77 | 1016.0 |
| 20260505124344 | 10 | 22 | 16.1 | 19.3 | 0.00 | 0.00 | 0.00 | 77 | 1016.1 |
| 20260505123843 | 10 | 13 | 14.5 | 19.3 | 0.00 | 0.00 | 0.00 | 78 | 1016.1 |
| 20260505123346 | 10 | 355 | 14.5 | 19.3 | 0.00 | 0.00 | 0.00 | 77 | 1016.0 |
| 20260505122842 | 10 | 5 | 12.9 | 20.9 | 0.00 | 0.00 | 0.00 | 76 | 1016.0 |
| 20260505122354 | 10 | 355 | 16.1 | 20.9 | 0.00 | 0.00 | 0.00 | 76 | 1016.1 |
| 20260505121850 | 10 | 360 | 14.5 | 20.9 | 0.00 | 0.00 | 0.00 | 75 | 1016.1 |
| 20260505121349 | 10 | 348 | 12.9 | 20.9 | 0.00 | 0.00 | 0.00 | 75 | 1016.1 |
| 20260505120845 | 11 | 355 | 9.7 | 16.1 | 0.00 | 0.00 | 0.00 | 77 | 1016.1 |
| 20260505120339 | 11 | 339 | 4.8 | 11.3 | 0.00 | 0.00 | 0.00 | 74 | 1016.0 |
| 20260505115843 | 11 | 263 | 4.8 | 6.4 | 0.00 | 0.00 | 0.00 | 72 | 1016.1 |
| 20260505115345 | 11 | 350 | 0.0 | 4.8 | 0.00 | 0.00 | 0.00 | 74 | 1016.0 |
| 20260505114840 | 11 | 350 | 1.6 | 4.8 | 0.00 | 0.00 | 0.00 | 74 | 1016.0 |
| 20260505114341 | 12 | 24 | 0.0 | 9.7 | 0.00 | 0.00 | 0.00 | 72 | 1016.1 |
| 20260505113847 | 12 | 296 | 1.6 | 9.7 | 0.00 | 0.00 | 0.00 | 69 | 1016.2 |
| 20260505113341 | 12 | 355 | 4.8 | 14.5 | 0.00 | 0.00 | 0.00 | 73 | 1016.3 |
| 20260505112841 | 12 | 227 | 9.7 | 14.5 | 0.00 | 0.00 | 0.00 | 73 | 1016.3 |
| 20260505112339 | 11 | 276 | 1.6 | 12.9 | 0.00 | 0.00 | 0.00 | 71 | 1016.4 |
| 20260505111857 | 12 | 269 | 3.2 | 8.0 | 0.00 | 0.00 | 0.00 | 74 | 1016.5 |
| 20260505111412 | 12 | 342 | 3.2 | 9.7 | 0.00 | 0.00 | 0.00 | 71 | 1016.6 |
| 20260505110849 | 12 | 332 | 4.8 | 9.7 | 0.00 | 0.00 | 0.00 | 76 | 1016.6 |
| 20260505110351 | 12 | 350 | 4.8 | 12.9 | 0.00 | 0.00 | 0.00 | 80 | 1016.7 |
| 20260505101854 | 10 | 360 | 0.0 | 3.2 | 0.00 | 0.00 | 0.00 | 78 | 1016.8 |
| 20260505101345 | 10 | 360 | 0.0 | 6.4 | 0.00 | 0.00 | 0.00 | 79 | 1016.8 |
| 20260505100850 | 10 | 360 | 3.2 | 9.7 | 0.00 | 0.00 | 0.00 | 79 | 1016.8 |
| 20260505100347 | 10 | 22 | 6.4 | 9.7 | 0.00 | 0.00 | 0.00 | 80 | 1016.9 |
| 20260505095845 | 10 | 360 | 6.4 | 9.7 | 0.00 | 0.00 | 0.00 | 79 | 1016.8 |
| 20260505095348 | 10 | 360 | 3.2 | 9.7 | 0.00 | 0.00 | 0.00 | 78 | 1016.8 |
| 20260505094913 | 10 | 349 | 3.2 | 12.9 | 0.00 | 0.00 | 0.00 | 77 | 1016.8 |
| 20260505094348 | 10 | 346 | 6.4 | 12.9 | 0.00 | 0.00 | 0.00 | 76 | 1016.8 |
| 20260505093841 | 11 | 16 | 4.8 | 9.7 | 0.00 | 0.00 | 0.00 | 78 | 1016.8 |
| 20260505093341 | 10 | 12 | 3.2 | 9.7 | 0.00 | 0.00 | 0.00 | 78 | 1016.9 |
| 20260505092842 | 10 | 355 | 4.8 | 12.9 | 0.00 | 0.00 | 0.00 | 79 | 1016.9 |
| 20260505092355 | 10 | 343 | 6.4 | 12.9 | 0.00 | 0.00 | 0.00 | 80 | 1017.0 |
| 20260505091859 | 11 | 330 | 6.4 | 12.9 | 0.00 | 0.00 | 0.00 | 81 | 1017.0 |
| 20260505091417 | 10 | 355 | 4.8 | 9.7 | 0.00 | 0.00 | 0.00 | 81 | 1017.0 |
| 20260505090846 | 10 | 254 | 1.6 | 9.7 | 0.00 | 0.00 | 0.00 | 81 | 1017.0 |
| 20260505090353 | 10 | 355 | 3.2 | 9.7 | 0.00 | 0.00 | 0.00 | 82 | 1016.9 |
| 20260505085853 | 9 | 355 | 4.8 | 16.1 | 0.00 | 0.00 | 0.00 | 82 | 1017.0 |
| 20260505085353 | 9 | 347 | 12.9 | 16.1 | 0.00 | 0.00 | 0.00 | 83 | 1017.0 |
| 20260505084838 | 10 | 348 | 9.7 | 16.1 | 0.00 | 0.00 | 0.00 | 83 | 1017.1 |
| 20260505084339 | 10 | 355 | 9.7 | 19.3 | 0.00 | 0.00 | 0.00 | 82 | 1017.1 |
| 20260505083900 | 10 | 5 | 11.3 | 19.3 | 0.00 | 0.00 | 0.00 | 83 | 1017.1 |
| 20260505083347 | 10 | 344 | 4.8 | 12.9 | 0.00 | 0.00 | 0.00 | 82 | 1017.1 |
| 20260505082846 | 10 | 338 | 4.8 | 12.9 | 0.00 | 0.00 | 0.00 | 83 | 1017.1 |
| 20260505082341 | 10 | 346 | 8.0 | 16.1 | 0.00 | 0.00 | 0.00 | 83 | 1017.1 |
| 20260505081839 | 10 | 355 | 9.7 | 19.3 | 0.00 | 0.00 | 0.00 | 82 | 1017.0 |
| 20260505081359 | 9 | 346 | 14.5 | 19.3 | 0.00 | 0.00 | 0.00 | 83 | 1017.1 |
| 20260505080849 | 9 | 303 | 8.0 | 14.5 | 0.00 | 0.00 | 0.00 | 84 | 1017.2 |
| 20260505080405 | 9 | 340 | 8.0 | 12.9 | 0.00 | 0.00 | 0.00 | 85 | 1017.1 |
| 20260505075843 | 9 | 5 | 1.6 | 11.3 | 0.00 | 0.00 | 0.00 | 85 | 1017.1 |
| 20260505075405 | 9 | 344 | 3.2 | 12.9 | 0.00 | 0.00 | 0.00 | 85 | 1017.1 |
| 20260505074904 | 8 | 346 | 3.2 | 12.9 | 0.00 | 0.00 | 0.00 | 86 | 1017.1 |
| 20260505074420 | 8 | 348 | 3.2 | 9.7 | 0.00 | 0.00 | 0.00 | 86 | 1017.0 |
| 20260505073858 | 8 | 344 | 3.2 | 8.0 | 0.00 | 0.00 | 0.00 | 86 | 1017.0 |
| 20260505073403 | 8 | 213 | 1.6 | 4.8 | 0.00 | 0.00 | 0.00 | 86 | 1017.1 |
| 20260505072838 | 8 | 259 | 1.6 | 4.8 | 0.00 | 0.00 | 0.00 | 86 | 1017.1 |
| 20260505072341 | 8 | 344 | 1.6 | 6.4 | 0.00 | 0.00 | 0.00 | 86 | 1017.1 |
| 20260505071901 | 8 | 279 | 3.2 | 6.4 | 0.00 | 0.00 | 0.00 | 87 | 1017.1 |
| 20260505071358 | 8 | 304 | 1.6 | 4.8 | 0.00 | 0.00 | 0.00 | 87 | 1017.1 |
| 20260505070851 | 8 | 295 | 0.0 | 4.8 | 0.00 | 0.00 | 0.00 | 87 | 1017.1 |
| 20260505070350 | 8 | 257 | 1.6 | 6.4 | 0.00 | 0.00 | 0.00 | 88 | 1017.1 |
| 20260505065837 | 8 | 318 | 1.6 | 6.4 | 0.00 | 0.00 | 0.00 | 88 | 1017.1 |
| 20260505065353 | 8 | 309 | 1.6 | 6.4 | 0.00 | 0.00 | 0.00 | 88 | 1017.1 |
| 20260505064910 | 7 | 287 | 0.0 | 6.4 | 0.00 | 0.00 | 0.00 | 88 | 1017.1 |
| 20260505064348 | 7 | 273 | 1.6 | 9.7 | 0.00 | 0.00 | 0.00 | 88 | 1017.1 |
| 20260505063851 | 7 | 292 | 4.8 | 9.7 | 0.00 | 0.00 | 0.00 | 88 | 1017.1 |
| 20260505063408 | 7 | 263 | 3.2 | 8.0 | 0.00 | 0.00 | 0.00 | 88 | 1017.2 |
| 20260505062904 | 7 | 286 | 3.2 | 8.0 | 0.00 | 0.00 | 0.00 | 88 | 1017.1 |
| 20260505062340 | 7 | 297 | 3.2 | 11.3 | 0.00 | 0.00 | 0.00 | 89 | 1017.1 |
| 20260505061839 | 7 | 333 | 1.6 | 11.3 | 0.00 | 0.00 | 0.00 | 89 | 1017.1 |
| 20260505061359 | 7 | 269 | 3.2 | 8.0 | 0.00 | 0.00 | 0.00 | 89 | 1017.1 |
| 20260505060844 | 7 | 279 | 3.2 | 6.4 | 0.00 | 0.00 | 0.00 | 89 | 1017.2 |
| 20260505060342 | 7 | 272 | 1.6 | 6.4 | 0.00 | 0.00 | 0.00 | 89 | 1017.1 |
| 20260505055853 | 7 | 282 | 3.2 | 6.4 | 0.00 | 0.00 | 0.00 | 89 | 1017.0 |
| 20260505055353 | 7 | 253 | 1.6 | 6.4 | 0.00 | 0.00 | 0.00 | 89 | 1016.9 |
| 20260505054843 | 6 | 264 | 3.2 | 4.8 | 0.00 | 0.00 | 0.00 | 89 | 1016.9 |
| 20260505054345 | 6 | 320 | 1.6 | 6.4 | 0.00 | 0.00 | 0.00 | 89 | 1016.9 |
| 20260505053839 | 6 | 292 | 1.6 | 8.0 | 0.00 | 0.00 | 0.00 | 89 | 1016.9 |
| 20260505053339 | 6 | 249 | 4.8 | 9.7 | 0.00 | 0.00 | 0.00 | 89 | 1016.9 |
| 20260505052858 | 6 | 340 | 4.8 | 8.0 | 0.00 | 0.00 | 0.00 | 88 | 1016.9 |
| 20260505052355 | 6 | 269 | 4.8 | 8.0 | 0.00 | 0.00 | 0.00 | 89 | 1016.9 |